Location: Hiekkapohja
(62.3333°N, 25.7833°E)
Time: 07:28:22
(UTC+00:00)

Cosmos 2297 Rocket - Pass Details

Date: 07 August 2020
Orbit: 838 x 845 km, 71.0° (Epoch: 20 September)

Event Time Altitude Azimuth Distance (km) Brightness Sun altitude
Exits shadow 00:46:08 - 204° (SSW) 2,689 4.2 -6.4°
Reaches altitude 10° 00:46:46 10° 203° (SSW) 2,455 4.0 -6.4°
Maximum altitude 00:52:18 62° 124° (SE) 950 2.5 -6.0°
Drops below altitude 10° 00:57:53 10° 45° (NE) 2,473 6.4 -5.6°
Sets 01:00:22 0° 43° (NE) 3,412 8.1 -5.5°
